Time,TemperatureF,DewpointF,PressureIn,WindDirection,WindDirectionDegrees,WindSpeedMPH,WindSpeedGustMPH,Humidity,HourlyPrecipIn,Conditions,Clouds,dailyrainin,SoftwareType,DateUTC
2013-09-11 00:05:00,80.8,75.2,29.95,SSW,202,2.0,4.0,83,0.00,,,0.00,Wunderground v.1.15,2013-09-11 04:05:00,
2013-09-11 00:10:00,80.8,75.2,29.95,SSW,211,3.0,3.0,83,0.00,,,0.00,Wunderground v.1.15,2013-09-11 04:10:00,
2013-09-11 00:15:00,80.9,75.2,29.95,SSW,211,3.0,3.0,83,0.00,,,0.00,Wunderground v.1.15,2013-09-11 04:15:00,
2013-09-11 00:20:00,80.8,75.2,29.95,SSW,211,2.0,2.0,83,0.00,,,0.00,Wunderground v.1.15,2013-09-11 04:20:00,
2013-09-11 00:25:00,80.8,75.2,29.95,SSW,211,2.0,2.0,83,0.00,,,0.00,Wunderground v.1.15,2013-09-11 04:25:00,
2013-09-11 00:35:00,80.6,75.3,29.96,South,183,3.0,5.0,84,0.00,,,0.00,Wunderground v.1.15,2013-09-11 04:35:00,
2013-09-11 00:45:00,80.3,75.0,29.96,South,184,2.0,5.0,84,0.00,,,0.00,Wunderground v.1.15,2013-09-11 04:45:00,
2013-09-11 00:55:00,80.0,75.1,29.96,South,184,3.0,5.0,85,0.00,,,0.00,Wunderground v.1.15,2013-09-11 04:55:00,
2013-09-11 01:00:00,79.9,75.0,29.96,South,185,3.0,3.0,85,0.00,,,0.00,Wunderground v.1.15,2013-09-11 05:00:00,
2013-09-11 01:05:00,79.7,75.1,29.96,South,184,3.0,3.0,86,0.00,,,0.00,Wunderground v.1.15,2013-09-11 05:05:00,
2013-09-11 01:10:00,79.6,75.0,29.96,South,186,2.0,5.0,86,0.00,,,0.00,Wunderground v.1.15,2013-09-11 05:10:00,
2013-09-11 01:20:00,79.4,75.2,29.96,South,187,3.0,4.0,87,0.00,,,0.00,Wunderground v.1.15,2013-09-11 05:20:00,
2013-09-11 01:25:00,79.3,75.1,29.96,South,187,3.0,4.0,87,0.00,,,0.00,Wunderground v.1.15,2013-09-11 05:25:00,
2013-09-11 01:35:00,79.2,75.0,29.96,South,187,2.0,3.0,87,0.00,,,0.00,Wunderground v.1.15,2013-09-11 05:35:00,
2013-09-11 01:45:00,79.0,75.1,29.96,South,186,3.0,5.0,88,0.00,,,0.00,Wunderground v.1.15,2013-09-11 05:45:00,
2013-09-11 01:55:00,79.0,75.1,29.95,South,186,3.0,3.0,88,0.00,,,0.00,Wunderground v.1.15,2013-09-11 05:55:00,
2013-09-11 02:00:00,79.0,75.1,29.95,South,186,2.0,4.0,88,0.00,,,0.00,Wunderground v.1.15,2013-09-11 06:00:00,
2013-09-11 02:10:00,79.2,75.3,29.95,SSW,192,3.0,3.0,88,0.00,,,0.00,Wunderground v.1.15,2013-09-11 06:10:00,
2013-09-11 02:15:00,79.2,75.3,29.96,South,191,2.0,4.0,88,0.00,,,0.00,Wunderground v.1.15,2013-09-11 06:15:00,
2013-09-11 02:25:00,79.2,75.3,29.96,South,190,2.0,2.0,88,0.00,,,0.00,Wunderground v.1.15,2013-09-11 06:25:00,
2013-09-11 02:30:00,79.2,75.3,29.96,South,190,2.0,3.0,88,0.00,,,0.00,Wunderground v.1.15,2013-09-11 06:30:00,
2013-09-11 02:40:00,79.1,75.2,29.96,South,190,2.0,2.0,88,0.00,,,0.00,Wunderground v.1.15,2013-09-11 06:40:00,
2013-09-11 02:50:00,79.1,75.2,29.95,South,190,2.0,3.0,88,0.00,,,0.00,Wunderground v.1.15,2013-09-11 06:50:00,
2013-09-11 02:55:00,79.0,75.1,29.96,South,190,2.0,3.0,88,0.00,,,0.00,Wunderground v.1.15,2013-09-11 06:55:00,
2013-09-11 03:05:00,78.9,75.0,29.95,South,190,3.0,4.0,88,0.00,,,0.00,Wunderground v.1.15,2013-09-11 07:05:00,
2013-09-11 03:15:00,78.7,75.2,29.95,South,190,1.0,3.0,89,0.00,,,0.00,Wunderground v.1.15,2013-09-11 07:15:00,
2013-09-11 03:20:00,78.7,75.2,29.95,South,190,1.0,1.0,89,0.00,,,0.00,Wunderground v.1.15,2013-09-11 07:20:00,
2013-09-11 03:30:00,78.5,75.0,29.95,South,190,2.0,2.0,89,0.00,,,0.00,Wunderground v.1.15,2013-09-11 07:30:00,
2013-09-11 03:35:00,78.4,75.2,29.95,South,190,1.0,2.0,90,0.00,,,0.00,Wunderground v.1.15,2013-09-11 07:35:00,
2013-09-11 03:45:00,78.2,75.0,29.95,South,190,2.0,3.0,90,0.00,,,0.00,Wunderground v.1.15,2013-09-11 07:45:00,
2013-09-11 03:50:00,78.1,74.9,29.95,South,190,2.0,2.0,90,0.00,,,0.00,Wunderground v.1.15,2013-09-11 07:50:00,
2013-09-11 04:00:00,78.1,74.9,29.95,South,190,2.0,2.0,90,0.00,,,0.00,Wunderground v.1.15,2013-09-11 08:00:00,
2013-09-11 04:10:00,78.0,74.8,29.95,South,190,2.0,2.0,90,0.00,,,0.00,Wunderground v.1.15,2013-09-11 08:10:00,
2013-09-11 04:20:00,78.0,74.8,29.95,South,190,2.0,2.0,90,0.00,,,0.00,Wunderground v.1.15,2013-09-11 08:20:00,
2013-09-11 04:30:00,77.9,75.1,29.95,South,190,2.0,2.0,91,0.00,,,0.00,Wunderground v.1.15,2013-09-11 08:30:00,
2013-09-11 04:40:00,77.8,75.0,29.95,South,190,2.0,5.0,91,0.00,,,0.00,Wunderground v.1.15,2013-09-11 08:40:00,
2013-09-11 04:50:00,77.7,74.9,29.95,South,190,2.0,2.0,91,0.00,,,0.00,Wunderground v.1.15,2013-09-11 08:50:00,
2013-09-11 05:00:00,77.5,74.7,29.96,South,190,2.0,2.0,91,0.00,,,0.00,Wunderground v.1.15,2013-09-11 09:00:00,
2013-09-11 05:05:00,77.4,74.6,29.96,South,190,1.0,2.0,91,0.00,,,0.00,Wunderground v.1.15,2013-09-11 09:05:00,
2013-09-11 05:15:00,77.4,74.6,29.96,South,190,2.0,3.0,91,0.00,,,0.00,Wunderground v.1.15,2013-09-11 09:15:00,
2013-09-11 05:20:00,77.3,74.8,29.96,South,190,2.0,2.0,92,0.00,,,0.00,Wunderground v.1.15,2013-09-11 09:20:00,
2013-09-11 05:30:00,77.3,74.8,29.96,South,190,2.0,2.0,92,0.00,,,0.00,Wunderground v.1.15,2013-09-11 09:30:00,
2013-09-11 05:40:00,77.2,74.7,29.97,South,190,1.0,1.0,92,0.00,,,0.00,Wunderground v.1.15,2013-09-11 09:40:00,
2013-09-11 05:45:00,77.1,74.6,29.97,South,190,1.0,1.0,92,0.00,,,0.00,Wunderground v.1.15,2013-09-11 09:45:00,
2013-09-11 05:55:00,77.0,74.5,29.97,South,190,1.0,2.0,92,0.00,,,0.00,Wunderground v.1.15,2013-09-11 09:55:00,
2013-09-11 06:05:00,76.8,74.3,29.98,South,190,1.0,3.0,92,0.00,,,0.00,Wunderground v.1.15,2013-09-11 10:05:00,
2013-09-11 06:15:00,76.7,74.2,29.98,South,190,1.0,5.0,92,0.00,,,0.00,Wunderground v.1.15,2013-09-11 10:15:00,
2013-09-11 06:20:00,76.6,74.1,29.98,South,190,1.0,1.0,92,0.00,,,0.00,Wunderground v.1.15,2013-09-11 10:20:00,
2013-09-11 06:30:00,76.5,74.3,29.99,South,190,2.0,3.0,93,0.00,,,0.00,Wunderground v.1.15,2013-09-11 10:30:00,
2013-09-11 06:35:00,76.4,74.2,29.99,South,190,3.0,3.0,93,0.00,,,0.00,Wunderground v.1.15,2013-09-11 10:35:00,
2013-09-11 06:45:00,76.3,74.1,29.99,South,190,2.0,4.0,93,0.00,,,0.00,Wunderground v.1.15,2013-09-11 10:45:00,
2013-09-11 06:50:00,76.2,74.0,29.99,South,190,1.0,1.0,93,0.00,,,0.00,Wunderground v.1.15,2013-09-11 10:50:00,
2013-09-11 07:00:00,76.1,73.9,29.99,South,190,2.0,2.0,93,0.00,,,0.00,Wunderground v.1.15,2013-09-11 11:00:00,
2013-09-11 07:10:00,76.0,73.8,30.00,South,190,2.0,2.0,93,0.00,,,0.00,Wunderground v.1.15,2013-09-11 11:10:00,
2013-09-11 07:20:00,76.0,73.8,30.00,South,190,2.0,2.0,93,0.00,,,0.00,Wunderground v.1.15,2013-09-11 11:20:00,
2013-09-11 07:30:00,76.1,73.9,29.99,South,190,2.0,2.0,93,0.00,,,0.00,Wunderground v.1.15,2013-09-11 11:30:00,
2013-09-11 07:40:00,76.2,74.0,29.99,South,190,2.0,2.0,93,0.00,,,0.00,Wunderground v.1.15,2013-09-11 11:40:00,
2013-09-11 07:45:00,76.3,74.1,30.00,South,190,1.0,2.0,93,0.00,,,0.00,Wunderground v.1.15,2013-09-11 11:45:00,
2013-09-11 07:55:00,76.6,74.4,29.99,South,190,1.0,2.0,93,0.00,,,0.00,Wunderground v.1.15,2013-09-11 11:55:00,
2013-09-11 08:00:00,76.7,74.5,29.99,South,190,1.0,3.0,93,0.00,,,0.00,Wunderground v.1.15,2013-09-11 12:00:00,
2013-09-11 08:10:00,77.1,74.6,29.99,South,190,2.0,2.0,92,0.00,,,0.00,Wunderground v.1.15,2013-09-11 12:10:00,
2013-09-11 08:15:00,77.3,74.8,29.99,South,190,2.0,3.0,92,0.00,,,0.00,Wunderground v.1.15,2013-09-11 12:15:00,
2013-09-11 08:25:00,77.7,75.2,29.99,South,190,2.0,2.0,92,0.00,,,0.00,Wunderground v.1.15,2013-09-11 12:25:00,
2013-09-11 08:35:00,78.2,75.4,29.99,South,190,1.0,4.0,91,0.00,,,0.00,Wunderground v.1.15,2013-09-11 12:35:00,
2013-09-11 08:50:00,78.7,75.5,29.99,South,190,2.0,2.0,90,0.00,,,0.00,Wunderground v.1.15,2013-09-11 12:50:00,
2013-09-11 09:00:00,79.3,75.8,29.99,South,190,1.0,2.0,89,0.00,,,0.00,Wunderground v.1.15,2013-09-11 13:00:00,
2013-09-11 09:10:00,79.8,75.9,29.98,South,188,2.0,2.0,88,0.00,,,0.00,Wunderground v.1.15,2013-09-11 13:10:00,
2013-09-11 09:15:00,80.1,75.9,29.98,South,188,2.0,2.0,87,0.00,,,0.00,Wunderground v.1.15,2013-09-11 13:15:00,
2013-09-11 09:25:00,80.6,76.0,29.98,SSW,195,2.0,2.0,86,0.00,,,0.00,Wunderground v.1.15,2013-09-11 13:25:00,
2013-09-11 09:35:00,81.2,76.3,29.98,South,186,4.0,4.0,85,0.00,,,0.00,Wunderground v.1.15,2013-09-11 13:35:00,
2013-09-11 09:40:00,81.5,76.2,29.98,South,188,4.0,4.0,84,0.00,,,0.00,Wunderground v.1.15,2013-09-11 13:40:00,
2013-09-11 09:50:00,81.9,76.2,29.98,SSW,198,3.0,3.0,83,0.00,,,0.00,Wunderground v.1.15,2013-09-11 13:50:00,
2013-09-11 10:00:00,82.4,76.3,29.98,SSW,202,1.0,1.0,82,0.00,,,0.00,Wunderground v.1.15,2013-09-11 14:00:00,
2013-09-11 10:05:00,82.6,76.2,29.98,SW,227,1.0,2.0,81,0.00,,,0.00,Wunderground v.1.15,2013-09-11 14:05:00,
2013-09-11 10:15:00,83.2,76.8,29.98,SSW,197,2.0,4.0,81,0.00,,,0.00,Wunderground v.1.15,2013-09-11 14:15:00,
2013-09-11 10:20:00,83.5,76.7,29.98,WSW,250,3.0,3.0,80,0.00,,,0.00,Wunderground v.1.15,2013-09-11 14:20:00,
2013-09-11 10:30:00,83.9,76.7,29.97,SW,236,2.0,3.0,79,0.00,,,0.00,Wunderground v.1.15,2013-09-11 14:30:00,
2013-09-11 10:35:00,84.0,76.4,29.97,SSW,192,2.0,3.0,78,0.00,,,0.00,Wunderground v.1.15,2013-09-11 14:35:00,
2013-09-11 10:45:00,84.2,76.6,29.97,SSW,192,3.0,3.0,78,0.00,,,0.00,Wunderground v.1.15,2013-09-11 14:45:00,
2013-09-11 10:55:00,84.8,77.2,29.97,SSW,202,2.0,2.0,78,0.00,,,0.00,Wunderground v.1.15,2013-09-11 14:55:00,
2013-09-11 11:00:00,85.0,77.0,29.97,South,191,1.0,1.0,77,0.00,,,0.00,Wunderground v.1.15,2013-09-11 15:00:00,
2013-09-11 11:10:00,85.5,77.5,29.97,SSW,204,2.0,2.0,77,0.00,,,0.00,Wunderground v.1.15,2013-09-11 15:10:00,
2013-09-11 11:15:00,85.8,77.4,29.96,SSW,206,2.0,2.0,76,0.00,,,0.00,Wunderground v.1.15,2013-09-11 15:15:00,
2013-09-11 11:25:00,86.4,78.3,29.96,SSW,204,1.0,1.0,77,0.00,,,0.00,Wunderground v.1.15,2013-09-11 15:25:00,
2013-09-11 11:30:00,86.7,77.8,29.96,SSW,204,2.0,2.0,75,0.00,,,0.00,Wunderground v.1.15,2013-09-11 15:30:00,
2013-09-11 11:40:00,87.3,77.6,29.96,SW,233,2.0,2.0,73,0.00,,,0.00,Wunderground v.1.15,2013-09-11 15:40:00,
2013-09-11 11:50:00,88.0,78.7,29.96,WSW,246,2.0,4.0,74,0.00,,,0.00,Wunderground v.1.15,2013-09-11 15:50:00,
2013-09-11 11:55:00,88.4,78.6,29.96,West,279,2.0,4.0,73,0.00,,,0.00,Wunderground v.1.15,2013-09-11 15:55:00,
2013-09-11 12:05:00,89.1,78.5,29.96,WSW,255,2.0,6.0,71,0.00,,,0.00,Wunderground v.1.15,2013-09-11 16:05:00,
2013-09-11 12:15:00,89.3,78.2,29.96,SSW,198,2.0,3.0,70,0.00,,,0.00,Wunderground v.1.15,2013-09-11 16:15:00,
2013-09-11 12:20:00,89.4,79.2,29.96,SSW,198,2.0,2.0,72,0.00,,,0.00,Wunderground v.1.15,2013-09-11 16:20:00,
2013-09-11 12:30:00,89.6,78.9,29.95,WSW,244,2.0,5.0,71,0.00,,,0.00,Wunderground v.1.15,2013-09-11 16:30:00,
2013-09-11 12:35:00,89.6,78.5,29.95,SW,221,3.0,5.0,70,0.00,,,0.00,Wunderground v.1.15,2013-09-11 16:35:00,
2013-09-11 12:45:00,90.1,79.0,29.94,South,190,3.0,5.0,70,0.00,,,0.00,Wunderground v.1.15,2013-09-11 16:45:00,
2013-09-11 12:55:00,90.7,79.6,29.94,SW,226,3.0,4.0,70,0.00,,,0.00,Wunderground v.1.15,2013-09-11 16:55:00,
2013-09-11 13:05:00,91.3,79.7,29.94,SSW,200,3.0,3.0,69,0.00,,,0.00,Wunderground v.1.15,2013-09-11 17:05:00,
2013-09-11 13:15:00,91.9,78.4,29.94,WSW,249,2.0,4.0,65,0.00,,,0.00,Wunderground v.1.15,2013-09-11 17:15:00,
2013-09-11 13:25:00,92.3,77.9,29.94,West,267,3.0,4.0,63,0.00,,,0.00,Wunderground v.1.15,2013-09-11 17:25:00,
2013-09-11 13:30:00,92.3,78.4,29.94,WSW,247,3.0,3.0,64,0.00,,,0.00,Wunderground v.1.15,2013-09-11 17:30:00,
2013-09-11 13:35:00,92.0,78.1,29.94,SW,217,3.0,3.0,64,0.00,,,0.00,Wunderground v.1.15,2013-09-11 17:35:00,
2013-09-11 13:40:00,91.6,77.2,29.94,SSW,211,2.0,2.0,63,0.00,,,0.00,Wunderground v.1.15,2013-09-11 17:40:00,
2013-09-11 13:50:00,90.5,77.6,29.94,West,265,3.0,3.0,66,0.00,,,0.00,Wunderground v.1.15,2013-09-11 17:50:00,
2013-09-11 13:55:00,90.8,78.3,29.93,WSW,248,2.0,3.0,67,0.00,,,0.00,Wunderground v.1.15,2013-09-11 17:55:00,
2013-09-11 14:05:00,91.4,77.5,29.93,West,281,2.0,5.0,64,0.00,,,0.00,Wunderground v.1.15,2013-09-11 18:05:00,
2013-09-11 14:10:00,91.3,76.9,29.93,West,260,3.0,3.0,63,0.00,,,0.00,Wunderground v.1.15,2013-09-11 18:10:00,
2013-09-11 14:25:00,91.1,77.2,29.91,WSW,258,2.0,2.0,64,0.00,,,0.00,Wunderground v.1.15,2013-09-11 18:25:00,
2013-09-11 14:35:00,91.5,77.1,29.91,WSW,252,2.0,2.0,63,0.00,,,0.00,Wunderground v.1.15,2013-09-11 18:35:00,
2013-09-11 14:45:00,91.8,75.9,29.91,WNW,285,2.0,2.0,60,0.00,,,0.00,Wunderground v.1.15,2013-09-11 18:45:00,
2013-09-11 14:55:00,91.7,76.3,29.90,West,263,3.0,3.0,61,0.00,,,0.00,Wunderground v.1.15,2013-09-11 18:55:00,
2013-09-11 15:00:00,91.6,76.2,29.91,WSW,240,3.0,3.0,61,0.00,,,0.00,Wunderground v.1.15,2013-09-11 19:00:00,
2013-09-11 15:10:00,91.6,77.2,29.91,WNW,287,3.0,3.0,63,0.00,,,0.00,Wunderground v.1.15,2013-09-11 19:10:00,
2013-09-11 15:15:00,91.7,75.8,29.91,SW,234,2.0,3.0,60,0.00,,,0.00,Wunderground v.1.15,2013-09-11 19:15:00,
2013-09-11 15:25:00,91.9,77.0,29.90,WSW,248,2.0,2.0,62,0.00,,,0.00,Wunderground v.1.15,2013-09-11 19:25:00,
2013-09-11 15:35:00,91.8,76.4,29.90,WSW,256,2.0,2.0,61,0.00,,,0.00,Wunderground v.1.15,2013-09-11 19:35:00,
2013-09-11 15:45:00,90.9,76.6,29.89,WSW,246,1.0,3.0,63,0.00,,,0.00,Wunderground v.1.15,2013-09-11 19:45:00,
2013-09-11 15:55:00,90.0,76.2,29.89,SW,234,1.0,1.0,64,0.00,,,0.00,Wunderground v.1.15,2013-09-11 19:55:00,
2013-09-11 16:00:00,89.5,76.2,29.88,SW,234,1.0,1.0,65,0.00,,,0.00,Wunderground v.1.15,2013-09-11 20:00:00,
2013-09-11 16:05:00,89.1,76.3,29.88,SW,233,0.0,1.0,66,0.00,,,0.00,Wunderground v.1.15,2013-09-11 20:05:00,
2013-09-11 16:15:00,88.4,76.0,29.88,SW,234,0.0,0.0,67,0.00,,,0.00,Wunderground v.1.15,2013-09-11 20:15:00,
2013-09-11 16:25:00,87.9,76.5,29.87,SW,234,0.0,0.0,69,0.00,,,0.00,Wunderground v.1.15,2013-09-11 20:25:00,
2013-09-11 16:35:00,87.2,75.8,29.87,WSW,246,1.0,1.0,69,0.00,,,0.00,Wunderground v.1.15,2013-09-11 20:35:00,
2013-09-11 16:40:00,87.0,76.0,29.87,WSW,246,1.0,1.0,70,0.00,,,0.00,Wunderground v.1.15,2013-09-11 20:40:00,
2013-09-11 16:50:00,86.5,75.5,29.88,WSW,252,1.0,1.0,70,0.00,,,0.00,Wunderground v.1.15,2013-09-11 20:50:00,
2013-09-11 16:55:00,86.3,75.8,29.88,WSW,250,1.0,2.0,71,0.00,,,0.00,Wunderground v.1.15,2013-09-11 20:55:00,
2013-09-11 17:05:00,86.6,76.1,29.87,SW,230,2.0,2.0,71,0.00,,,0.00,Wunderground v.1.15,2013-09-11 21:05:00,
2013-09-11 17:15:00,87.2,75.8,29.87,SSW,204,2.0,6.0,69,0.00,,,0.00,Wunderground v.1.15,2013-09-11 21:15:00,
2013-09-11 17:25:00,87.4,75.1,29.88,SSW,198,2.0,2.0,67,0.00,,,0.00,Wunderground v.1.15,2013-09-11 21:25:00,
2013-09-11 17:35:00,87.4,73.7,29.89,SSW,196,4.0,5.0,64,0.00,,,0.00,Wunderground v.1.15,2013-09-11 21:35:00,
2013-09-11 17:45:00,86.8,73.6,29.90,South,189,2.0,3.0,65,0.00,,,0.00,Wunderground v.1.15,2013-09-11 21:45:00,
2013-09-11 17:55:00,85.9,73.7,29.90,South,191,1.0,4.0,67,0.00,,,0.00,Wunderground v.1.15,2013-09-11 21:55:00,
2013-09-11 18:05:00,84.9,73.6,29.90,South,191,1.0,3.0,69,0.00,,,0.00,Wunderground v.1.15,2013-09-11 22:05:00,
2013-09-11 18:15:00,84.1,73.3,29.90,South,191,2.0,3.0,70,0.00,,,0.00,Wunderground v.1.15,2013-09-11 22:15:00,
2013-09-11 18:20:00,83.7,73.3,29.90,South,191,2.0,2.0,71,0.00,,,0.00,Wunderground v.1.15,2013-09-11 22:20:00,
2013-09-11 18:30:00,83.0,73.4,29.90,South,190,3.0,3.0,73,0.00,,,0.00,Wunderground v.1.15,2013-09-11 22:30:00,
2013-09-11 18:40:00,82.7,73.2,29.91,South,190,2.0,2.0,73,0.00,,,0.00,Wunderground v.1.15,2013-09-11 22:40:00,
2013-09-11 18:50:00,82.5,73.0,29.90,South,190,2.0,2.0,73,0.00,,,0.00,Wunderground v.1.15,2013-09-11 22:50:00,
2013-09-11 19:00:00,82.4,73.3,29.89,South,190,1.0,1.0,74,0.00,,,0.00,Wunderground v.1.15,2013-09-11 23:00:00,
2013-09-11 19:10:00,82.2,73.1,29.89,South,190,1.0,2.0,74,0.00,,,0.00,Wunderground v.1.15,2013-09-11 23:10:00,
2013-09-11 19:20:00,81.7,73.0,29.89,South,190,1.0,1.0,75,0.00,,,0.00,Wunderground v.1.15,2013-09-11 23:20:00,
2013-09-11 19:30:00,81.2,72.9,29.90,South,190,0.0,0.0,76,0.00,,,0.00,Wunderground v.1.15,2013-09-11 23:30:00,
2013-09-11 19:35:00,80.9,72.6,29.90,South,190,1.0,4.0,76,0.00,,,0.00,Wunderground v.1.15,2013-09-11 23:35:00,
2013-09-11 19:45:00,80.5,72.6,29.90,South,190,3.0,10.0,77,0.00,,,0.00,Wunderground v.1.15,2013-09-11 23:45:00,
2013-09-11 19:50:00,80.4,72.5,29.91,South,191,1.0,4.0,77,0.00,,,0.00,Wunderground v.1.15,2013-09-11 23:50:00,
2013-09-11 20:00:00,80.3,72.4,29.92,SSW,196,3.0,5.0,77,0.00,,,0.00,Wunderground v.1.15,2013-09-12 00:00:00,
2013-09-11 20:05:00,80.3,71.6,29.93,SSW,202,4.0,5.0,75,0.00,,,0.00,Wunderground v.1.15,2013-09-12 00:05:00,
2013-09-11 20:10:00,80.2,71.6,29.92,SSW,196,3.0,4.0,75,0.00,,,0.00,Wunderground v.1.15,2013-09-12 00:10:00,
2013-09-11 20:20:00,79.9,71.3,29.92,SSW,198,5.0,5.0,75,0.00,,,0.00,Wunderground v.1.15,2013-09-12 00:20:00,
2013-09-11 20:25:00,79.6,71.0,29.92,SSW,197,4.0,5.0,75,0.00,,,0.00,Wunderground v.1.15,2013-09-12 00:25:00,
2013-09-11 20:35:00,78.9,70.3,29.92,South,187,5.0,6.0,75,0.00,,,0.00,Wunderground v.1.15,2013-09-12 00:35:00,
2013-09-11 20:45:00,78.3,70.1,29.92,South,191,6.0,12.0,76,0.00,,,0.00,Wunderground v.1.15,2013-09-12 00:45:00,
2013-09-11 20:55:00,77.5,70.1,29.92,SSW,194,6.0,6.0,78,0.00,,,0.00,Wunderground v.1.15,2013-09-12 00:55:00,
2013-09-11 21:00:00,77.3,69.9,29.92,SSW,196,6.0,6.0,78,0.00,,,0.00,Wunderground v.1.15,2013-09-12 01:00:00,
2013-09-11 21:10:00,76.9,69.9,29.91,SSW,195,3.0,3.0,79,0.00,,,0.00,Wunderground v.1.15,2013-09-12 01:10:00,
2013-09-11 21:20:00,76.5,69.9,29.91,SSW,195,1.0,3.0,80,0.00,,,0.00,Wunderground v.1.15,2013-09-12 01:20:00,
2013-09-11 21:30:00,76.0,69.7,29.91,SSW,196,4.0,4.0,81,0.00,,,0.00,Wunderground v.1.15,2013-09-12 01:30:00,
2013-09-11 21:35:00,75.8,69.6,29.91,SSW,194,5.0,7.0,81,0.00,,,0.00,Wunderground v.1.15,2013-09-12 01:35:00,
2013-09-11 21:45:00,75.7,69.5,29.91,South,191,4.0,6.0,81,0.00,,,0.00,Wunderground v.1.15,2013-09-12 01:45:00,
2013-09-11 21:55:00,75.5,69.6,29.91,SSW,192,4.0,9.0,82,0.00,,,0.00,Wunderground v.1.15,2013-09-12 01:55:00,
2013-09-11 22:00:00,75.3,69.4,29.90,South,190,4.0,4.0,82,0.00,,,0.00,Wunderground v.1.15,2013-09-12 02:00:00,
2013-09-11 22:10:00,75.1,69.6,29.90,South,190,2.0,4.0,83,0.00,,,0.00,Wunderground v.1.15,2013-09-12 02:10:00,
2013-09-11 22:20:00,74.7,69.2,29.90,South,190,2.0,4.0,83,0.00,,,0.00,Wunderground v.1.15,2013-09-12 02:20:00,
2013-09-11 22:25:00,74.5,69.0,29.90,South,190,2.0,4.0,83,0.00,,,0.00,Wunderground v.1.15,2013-09-12 02:25:00,
2013-09-11 22:35:00,74.2,68.7,29.90,South,190,3.0,3.0,83,0.00,,,0.00,Wunderground v.1.15,2013-09-12 02:35:00,
2013-09-11 22:45:00,74.0,68.5,29.89,SSW,193,3.0,3.0,83,0.00,,,0.00,Wunderground v.1.15,2013-09-12 02:45:00,
2013-09-11 22:55:00,74.1,68.3,29.89,SSW,196,3.0,3.0,82,0.00,,,0.00,Wunderground v.1.15,2013-09-12 02:55:00,
2013-09-11 23:05:00,74.0,68.2,29.88,SSW,192,4.0,5.0,82,0.00,,,0.00,Wunderground v.1.15,2013-09-12 03:05:00,
2013-09-11 23:15:00,73.8,68.3,29.87,South,190,4.0,6.0,83,0.00,,,0.00,Wunderground v.1.15,2013-09-12 03:15:00,
2013-09-11 23:25:00,73.6,68.1,29.87,South,190,2.0,6.0,83,0.00,,,0.00,Wunderground v.1.15,2013-09-12 03:25:00,
2013-09-11 23:35:00,73.4,67.9,29.86,South,190,3.0,6.0,83,0.00,,,0.00,Wunderground v.1.15,2013-09-12 03:35:00,
2013-09-11 23:45:00,73.3,67.8,29.85,South,190,3.0,4.0,83,0.00,,,0.00,Wunderground v.1.15,2013-09-12 03:45:00,
2013-09-11 23:55:00,73.3,67.8,29.85,South,191,4.0,4.0,83,0.00,,,0.00,Wunderground v.1.15,2013-09-12 03:55:00,